Location: Boiro
(42.6475°N, 8.8834°W)
Time: 08:31:27
(UTC+01:00)

Vanguard 2 - Pass Details

Date: 06 December 2021
Orbit: 553 x 2936 km, 32.9° (Epoch: 19 January)

Event Time Altitude Azimuth Distance (km) Brightness Sun altitude
Rises 13:26:29 0° 215° (SW) 2,708 11.2 24.8°
Reaches altitude 10° 13:29:29 10° 189° (S) 1,875 11.4 24.8°
Maximum altitude 13:31:44 14° 155° (SSE) 1,713 10.7 24.8°
Drops below altitude 10° 13:34:15 10° 122° (ESE) 2,139 10.3 24.8°
Sets 13:38:07 0° 99° (E) 3,399 10.9 24.7°
